Location: Carrières
(48.9495°N, 2.0407°E)
Time: 19:35:34
(UTC+00:00)

BREEZE-M DEB (TANK) - Pass Details

Date: 28 January 2023
Orbit: 427 x 13836 km, 45.9° (Epoch: 25 March)

Event Time Altitude Azimuth Distance (km) Brightness Sun altitude
Rises 17:51:37 0° 250° (WSW) 2,386 7.7 -11.5°
Reaches altitude 10° 17:53:15 10° 244° (WSW) 1,598 6.1 -11.7°
Maximum altitude 17:56:13 54° 165° (SSE) 748 2.9 -12.2°
Enters shadow 18:00:37 16° 92° (E) 2,469 5.0 -12.9°
